Tracking 19242 objects as of 15-Aug-2018
HD Live streaming from Space Station
objects crossing your sky now

LES 5

Track LES 5 now!
LES 5 is classified as:


NORAD ID: 2866
Int'l Code: 1967-066E
Perigee: 33,188.0 km
Apogee: 33,628.6 km
Inclination: 4.3 °
Period: 1,316.0 minutes
Semi major axis: 39779 km
RCS: 2.6184 m2 (large)
Launch date: July 1, 1967
Source: United States (US)
Launch site: AIR FORCE EASTERN TEST RANGE (AFETR)
aabbcc
Your satellite tracking list
Your tracking list is empty




NASA's NSSDC Master Catalog

Two Line Element Set (TLE):
1 02866U 67066E   18227.14675001 -.00000085  00000-0  00000+0 0  9994
2 02866   4.2620 287.3948 0055386 327.8051  89.3468  1.09425072 99693
Source of the keplerian elements: AFSPC